User: anonymous   Login
Location: Campo Alegre
(10.1673°N, 67.4431°W)
Time: 15:39:39
(UTC+00:00)
Language:

Cosmos 1461 - Orbit

View from above orbital plane
View from above orbital plane
View from above satellite
View from above satellite

Ground track
Ground track

The orbit data is extracted from the following two-line orbital elements,

1 14064U 83044A   24165.71742864  .00010247  00000-0  63794-3 0  9997
2 14064  64.9968 268.0885 0059454 115.3957 245.3337 15.08540251105413
Epoch (UTC): 13 June 2024 17:13:05
Eccentricity: 0.0059454
inclination: 64.9968°
perigee height: 499 km
apogee height: 582 km
right ascension of ascending node: 268.0885°
argument of perigee: 115.3957°
revolutions per day: 15.08540251
mean anomaly at epoch: 245.3337°
orbit number at epoch: 10541

The dashed part of the orbit path shows where the satellite is in the earth's shadow,  

DLR